Temp
58 60 60 61 63 64 66 67 67 67 64 64 64 65 64 64 64 62 63 64 62 62 62 61 60 61 60 60 57 57 57 56 53 53 46 41 39 39 39 40 40 40 41
57 58 58 60 61 61 62 62 63 63 64 63 64 64 65 65 64 62 62 62 62 60 60 59 59 59 57 58 57 56 56 57 54 52 40 36 38 38 38 37 38 40 39
56 55 56 57 58 59 60 61 61 61 61 62 62 61 62 62 62 62 62 61 60 60 59 58 58 57 56 56 56 55 55 54 54 52 42 36 35 36 35 35 35 35 38
54 53 53 55 56 57 59 59 62 62 61 60 60 60 60 60 60 60 60 59 59 58 58 58 57 56 55 55 54 54 52 51 46 42 35 34 33 33 33 32 32 33 33
55 52 52 52 54 53 52 53 53 52 53 53 55 56 57 57 57 58 58 57 57 56 54 55 54 49 44 48 51 51 47 42 37 36 34 33 33 31 32 32 32 32 32
51 52 51 49 47 47 47 45 46 46 47 46 46 46 48 48 42 43 46 52 51 50 50 46 42 38 40 41 42 43 45 43 36 36 34 34 33 33 32 32 31 30 29
44 49 45 44 43 42 41 41 41 43 43 42 42 43 42 42 42 42 41 47 47 46 44 41 38 38 39 40 41 41 39 42 42 39 35 35 33 34 33 32 31 31 31
41 44 41 39 38 37 37 40 40 40 40 39 39 40 39 39 41 41 40 42 41 40 39 38 38 37 37 38 37 35 35 35 36 35 35 34 34 34 34 34 33 32 31
37 36 36 36 36 37 37 39 39 38 37 37 36 34 34 35 40 40 39 36 35 34 35 36 37 36 38 39 35 33 33 33 38 39 39 39 40 38 36 34 32 32 30
35 34 36 36 36 37 38 36 34 34 33 33 33 33 33 34 39 39 37 34 33 33 33 34 35 36 38 38 34 33 32 32 33 33 33 35 36 37 37 33 34 32 31
32 33 35 35 35 36 35 33 33 33 33 33 33 32 33 33 36 39 39 34 34 33 32 32 33 38 38 38 37 33 33 34 34 33 33 33 33 33 32 32 33 33 30
28 29 32 34 35 34 34 33 33 33 33 32 32 32 32 33 35 38 38 37 37 34 33 33 35 38 38 38 35 38 37 34 33 33 32 31 31 30 31 31 31 31 31
24 26 31 34 33 33 33 33 32 33 33 32 32 31 31 32 33 37 37 37 36 33 33 36 38 38 38 37 37 36 33 33 33 32 29 28 29 29 30 30 30 31 31
19 24 30 32 33 33 32 32 33 33 33 33 32 31 31 31 31 32 32 33 34 34 35 34 35 34 35 33 32 32 32 31 31 30 28 28 29 26 27 29 29 29 27
18 22 28 31 32 30 29 31 30 31 33 33 33 33 31 30 31 33 33 32 32 33 32 32 31 30 30 30 30 30 29 28 27 25 26 27 27 28 28 28 28 27 26
17 23 28 29 29 28 29 30 35 35 35 35 35 33 32 35 35 35 35 35 35 34 30 29 28 28 28 28 27 26 26 28 28 29 28 28 27 26 26 27 25 22 21
17 22 25 27 27 27 27 26 26 29 34 34 34 35 35 35 35 35 34 34 34 33 28 28 27 26 26 25 25 25 25 25 25 26 26 26 26 26 25 25 25 25 24
16 19 21 22 24 26 26 26 26 24 22 23 27 28 32 33 34 34 34 33 29 29 28 26 26 26 26 25 24 24 24 25 25 25 25 25 24 24 24 24 24 23 23
15 16 17 19 20 21 22 22 21 20 18 18 19 21 23 28 27 27 26 22 21 19 20 19 20 20 20 21 21 22 22 21 20 21 21 22 22 22 21 21 22 21 18
14 15 15 15 15 16 17 17 17 16 15 14 15 16 17 18 15 15 15 15 14 14 14 14 15 16 15 16 17 18 18 17 17 17 17 16 15 16 17 16 17 16 15
12 12 13 13 12 13 13 13 13 13 12 11 12 18 20 13 12 12 12 11 11 11 11 11 12 13 14 13 14 14 14 14 13 14 13 12 12 11 11 13 13 13 10
10 11 11 10 11 11 11 11 11 11 10 10 10 12 17 11 11 10 10 10 10 11 11 10 10 10 11 11 10 10 11 11 11 11 11 11 10 8 7 8 7 7 5
8 8 9 9 9 9 9 9 8 8 8 8 9 8 9 8 8 8 8 8 9 8 9 9 8 8 9 9 10 9 8 8 8 7 7 5 3 4 2 3 4 2 2
6 6 6 6 7 6 6 6 7 7 6 6 6 6 6 6 6 7 7 7 7 7 7 7 6 6 6 6 6 6 6 7 6 5 5 3 2 -0 -1 -2 1 -0 2
5 4 4 4 4 4 4 4 4 4 5 5 4 5 5 5 5 5 5 5 5 4 4 4 4 4 4 3 3 3 3 5 3 3 -2 -0 -1 -1 -0 -2 -0 -1 -0
3 2 2 2 2 2 2 1 1 2 1 2 2 2 2 2 2 2 2 2 1 1 1 2 2 2 1 2 2 4 5 7 6 5 -0 -3 -3 -1 -2 -1 -3 -2 -0
MSLP
1010.56 1010.02 1009.58 1009.13 1008.66 1008.44 1008.37 1008.45 1008.52 1008.56 1008.66 1008.78 1009.04 1009.41 1009.85 1010.28 1010.65 1011.00 1011.18 1011.30 1011.35 1011.53 1011.82 1011.93 1012.13 1012.47 1012.67 1012.97 1013.40 1013.59 1013.88 1014.30 1014.30 1014.44 1014.89 1015.53 1016.10 1016.41 1016.83 1017.26 1017.56 1017.75 1018.14
1010.39 1010.20 1009.70 1009.09 1008.64 1008.34 1008.19 1008.17 1008.22 1008.20 1008.15 1008.25 1008.38 1008.52 1008.79 1009.16 1009.65 1010.04 1010.23 1010.34 1010.57 1010.83 1011.09 1011.51 1011.70 1012.11 1012.35 1012.63 1012.83 1013.07 1013.26 1013.36 1013.79 1014.18 1014.95 1015.71 1016.26 1016.59 1016.93 1017.26 1017.53 1017.69 1018.01
1010.27 1010.12 1009.75 1009.26 1008.77 1008.36 1008.08 1007.96 1008.02 1008.07 1008.02 1008.05 1008.12 1008.27 1008.39 1008.63 1008.96 1009.27 1009.62 1009.84 1010.05 1010.29 1010.57 1010.94 1011.27 1011.59 1011.82 1012.00 1012.09 1012.25 1012.59 1012.75 1013.21 1013.82 1014.94 1015.76 1016.36 1016.65 1017.18 1017.40 1017.70 1017.80 1018.04
1010.36 1010.00 1009.83 1009.47 1009.03 1008.53 1008.05 1007.88 1007.77 1007.77 1007.92 1008.00 1008.04 1008.22 1008.36 1008.51 1008.69 1008.82 1009.03 1009.29 1009.50 1009.71 1009.96 1010.16 1010.51 1010.72 1010.89 1011.08 1011.27 1011.51 1011.93 1012.26 1012.78 1013.63 1014.61 1015.52 1016.23 1016.59 1016.91 1017.33 1017.62 1017.95 1018.18
1011.25 1010.12 1009.78 1009.54 1009.13 1008.85 1008.56 1008.33 1008.23 1008.31 1008.42 1008.49 1008.33 1008.21 1008.23 1008.25 1008.29 1008.41 1008.50 1008.59 1008.84 1009.10 1009.38 1009.61 1009.70 1009.91 1010.06 1010.29 1010.62 1010.91 1011.39 1011.96 1012.80 1013.74 1014.63 1015.23 1015.82 1016.44 1016.66 1016.93 1017.29 1017.90 1018.05
1011.84 1010.84 1010.00 1009.72 1009.55 1009.43 1009.15 1008.98 1008.77 1008.76 1008.80 1008.85 1008.85 1008.87 1008.79 1008.76 1008.75 1008.59 1008.55 1008.49 1008.56 1008.75 1009.05 1009.53 1010.01 1010.29 1010.44 1010.71 1010.83 1010.85 1011.11 1011.73 1012.35 1013.14 1013.70 1014.35 1014.88 1015.20 1016.05 1016.50 1017.11 1017.77 1018.13
1012.65 1011.27 1010.45 1010.02 1009.82 1009.67 1009.53 1009.47 1009.31 1009.07 1009.06 1009.14 1009.17 1009.15 1009.09 1009.12 1009.05 1008.78 1008.59 1008.52 1008.64 1008.90 1009.23 1009.78 1010.29 1010.49 1010.51 1010.93 1011.35 1011.37 1011.71 1011.68 1011.77 1012.34 1013.34 1013.61 1014.22 1014.48 1015.20 1016.07 1016.59 1017.21 1017.43
1013.18 1012.01 1011.17 1010.58 1010.27 1010.05 1009.81 1009.65 1009.60 1009.49 1009.35 1009.39 1009.37 1009.30 1009.32 1009.41 1009.31 1009.17 1008.97 1008.99 1009.18 1009.41 1009.69 1009.99 1010.20 1010.74 1010.93 1011.13 1011.58 1011.66 1012.24 1012.31 1012.41 1012.58 1012.76 1013.33 1013.75 1014.06 1014.60 1015.17 1015.99 1017.02 1017.44
1013.96 1013.02 1012.20 1011.45 1010.78 1010.41 1009.90 1009.61 1009.44 1009.48 1009.51 1009.62 1009.65 1009.61 1009.59 1009.47 1009.27 1009.15 1009.20 1009.48 1009.82 1010.14 1010.34 1010.41 1010.65 1011.02 1011.30 1011.24 1011.78 1012.14 1012.84 1013.13 1012.81 1012.92 1013.15 1013.42 1013.93 1014.25 1014.64 1015.09 1016.05 1016.72 1017.23
1014.48 1013.74 1012.80 1011.88 1011.12 1010.46 1009.96 1009.59 1009.38 1009.44 1009.49 1009.76 1009.87 1009.81 1009.73 1009.68 1009.37 1009.18 1009.20 1009.60 1010.09 1010.52 1010.66 1010.87 1010.89 1011.17 1011.32 1011.50 1011.98 1012.25 1012.87 1013.42 1013.40 1013.63 1013.83 1014.13 1014.45 1014.67 1015.01 1015.19 1015.60 1016.22 1016.74
1015.30 1014.10 1012.92 1011.81 1011.04 1010.34 1009.78 1009.52 1009.36 1009.33 1009.47 1009.79 1009.89 1009.95 1009.99 1009.77 1009.52 1009.34 1009.17 1009.36 1009.80 1010.42 1010.80 1011.02 1011.14 1011.33 1011.52 1011.70 1011.98 1012.46 1012.87 1013.17 1013.51 1013.85 1014.24 1014.81 1014.99 1015.11 1015.40 1015.67 1015.87 1016.12 1016.60
1015.61 1014.37 1012.90 1011.64 1010.69 1010.11 1009.61 1009.41 1009.35 1009.32 1009.42 1009.59 1009.80 1010.03 1010.06 1009.88 1009.77 1009.52 1009.29 1009.34 1009.59 1010.05 1010.63 1011.05 1011.14 1011.40 1011.70 1011.89 1012.22 1012.67 1013.13 1013.60 1013.93 1014.28 1014.68 1015.05 1015.27 1015.45 1015.74 1016.12 1016.28 1016.44 1016.62
1015.74 1014.25 1012.77 1011.48 1010.44 1009.86 1009.47 1009.26 1009.43 1009.35 1009.33 1009.38 1009.59 1009.96 1010.09 1010.05 1010.04 1009.89 1009.66 1009.64 1009.88 1010.31 1010.68 1010.96 1011.25 1011.64 1012.02 1012.25 1012.67 1013.16 1013.58 1013.87 1014.35 1014.64 1015.01 1015.38 1015.53 1015.64 1015.88 1016.15 1016.36 1016.57 1016.70
1015.76 1014.08 1012.64 1011.34 1010.44 1009.78 1009.45 1009.15 1009.04 1009.09 1009.16 1009.22 1009.37 1009.63 1010.01 1010.11 1010.28 1010.33 1010.16 1010.19 1010.24 1010.54 1010.92 1011.28 1011.72 1012.17 1012.49 1012.78 1013.22 1013.78 1014.00 1014.21 1014.46 1014.87 1015.18 1015.60 1015.76 1015.92 1016.05 1016.21 1016.44 1016.67 1016.88
1015.81 1013.97 1012.44 1011.33 1010.57 1010.08 1009.59 1009.34 1009.03 1008.78 1008.66 1008.80 1008.94 1009.17 1009.59 1010.05 1010.27 1010.33 1010.30 1010.47 1010.69 1010.90 1011.41 1011.82 1012.18 1012.66 1013.13 1013.47 1013.74 1014.20 1014.60 1014.80 1014.95 1015.25 1015.40 1015.76 1016.01 1016.09 1016.23 1016.40 1016.56 1016.77 1016.89
1015.73 1013.78 1012.29 1011.47 1010.76 1010.39 1010.06 1009.64 1009.27 1008.91 1008.68 1008.77 1009.05 1009.21 1009.42 1009.73 1010.21 1010.48 1010.51 1010.66 1010.96 1011.34 1011.92 1012.39 1012.78 1013.13 1013.60 1013.93 1014.30 1014.64 1015.00 1015.08 1015.23 1015.22 1015.43 1015.71 1016.01 1016.26 1016.47 1016.59 1016.68 1017.07 1017.26
1015.81 1014.08 1012.70 1011.82 1011.10 1010.69 1010.63 1010.57 1009.96 1010.01 1009.60 1009.52 1009.63 1009.60 1009.51 1009.96 1010.43 1010.81 1011.04 1011.29 1011.44 1011.84 1012.49 1013.13 1013.49 1013.87 1014.28 1014.61 1014.96 1014.99 1015.27 1015.38 1015.48 1015.71 1015.95 1015.91 1016.12 1016.27 1016.52 1016.70 1016.83 1016.99 1017.17
1016.17 1014.90 1013.76 1012.95 1012.24 1011.62 1011.41 1011.43 1011.41 1011.46 1011.45 1011.36 1011.11 1010.87 1010.87 1010.60 1010.76 1011.13 1011.64 1011.99 1012.44 1012.63 1013.40 1014.03 1014.41 1014.81 1014.97 1015.05 1015.37 1015.40 1015.62 1015.38 1015.62 1015.84 1016.28 1016.41 1016.49 1016.64 1016.82 1016.93 1017.02 1017.18 1017.40
1017.01 1015.96 1015.10 1014.33 1013.62 1013.24 1012.91 1012.75 1012.85 1013.04 1013.00 1013.59 1013.05 1012.40 1012.33 1012.33 1011.95 1012.12 1012.65 1013.43 1013.95 1014.73 1015.07 1015.48 1015.66 1016.06 1015.96 1015.90 1015.91 1016.04 1016.05 1016.25 1016.30 1016.55 1016.66 1016.87 1017.01 1017.10 1017.21 1017.25 1017.29 1017.43 1017.64
1018.31 1017.40 1016.57 1015.88 1015.25 1014.86 1014.65 1014.42 1014.45 1014.72 1014.87 1014.80 1015.00 1014.92 1014.19 1013.66 1013.53 1014.23 1014.79 1015.12 1015.70 1016.46 1016.76 1016.88 1016.78 1017.06 1017.01 1016.86 1016.86 1016.78 1016.88 1016.92 1016.85 1017.08 1017.31 1017.46 1017.52 1017.51 1017.59 1017.60 1017.65 1017.67 1017.79
1020.01 1018.97 1018.24 1017.69 1017.10 1016.89 1016.72 1016.47 1016.32 1016.28 1016.51 1016.37 1016.43 1015.89 1015.66 1015.41 1015.67 1015.52 1016.21 1016.65 1017.10 1017.55 1017.82 1017.89 1017.75 1017.77 1017.77 1017.69 1017.56 1017.49 1017.45 1017.47 1017.51 1017.60 1017.74 1017.81 1017.81 1018.00 1017.81 1017.72 1017.76 1017.69 1017.70
1021.41 1020.62 1019.92 1019.50 1019.14 1018.62 1018.45 1018.24 1018.09 1017.98 1017.97 1017.73 1017.83 1017.51 1017.16 1017.31 1017.33 1017.30 1017.74 1017.97 1018.21 1018.52 1018.68 1018.68 1018.63 1018.56 1018.40 1018.27 1018.15 1018.10 1018.00 1017.85 1017.84 1017.94 1017.99 1018.06 1018.06 1018.07 1018.02 1018.03 1018.03 1017.98 1017.94
1022.68 1021.96 1021.49 1020.99 1020.63 1020.28 1019.73 1019.65 1019.66 1019.37 1019.40 1019.43 1019.05 1018.85 1018.86 1018.80 1018.69 1018.77 1018.89 1018.89 1019.02 1019.17 1019.19 1019.14 1019.09 1018.99 1018.79 1018.70 1018.60 1018.48 1018.36 1018.23 1018.21 1018.18 1018.24 1018.18 1018.13 1018.07 1017.92 1018.04 1018.03 1017.96 1017.95
1023.78 1023.31 1022.84 1022.37 1021.99 1021.63 1021.31 1021.09 1020.89 1020.65 1020.41 1020.37 1020.28 1019.96 1019.94 1019.99 1019.75 1019.64 1019.57 1019.66 1019.57 1019.67 1019.75 1019.63 1019.47 1019.38 1019.21 1019.08 1018.94 1018.73 1018.49 1018.35 1018.22 1018.19 1018.06 1018.03 1017.93 1017.78 1017.71 1017.80 1017.78 1017.71 1017.71
1024.75 1024.27 1023.85 1023.56 1023.28 1022.86 1022.46 1022.25 1022.00 1021.75 1021.44 1021.37 1021.21 1020.83 1020.80 1020.80 1020.55 1020.36 1020.27 1020.24 1020.01 1020.01 1020.08 1019.91 1019.59 1019.45 1019.29 1019.09 1018.85 1018.60 1018.35 1018.12 1017.97 1017.94 1017.93 1017.82 1017.71 1017.48 1017.45 1017.44 1017.45 1017.51 1017.43
1025.74 1025.31 1024.97 1024.65 1024.29 1023.99 1023.74 1023.45 1023.11 1022.80 1022.37 1022.19 1022.09 1021.82 1021.58 1021.29 1021.19 1021.15 1021.11 1020.89 1020.50 1020.31 1020.07 1019.75 1019.58 1019.43 1019.18 1018.86 1018.52 1018.17 1017.92 1017.61 1017.32 1017.07 1017.06 1017.31 1017.27 1017.17 1017.02 1016.89 1016.96 1017.06 1016.95
Wind_Speed
7 8 8 7 7 7 10 11 12 11 8 9 10 10 12 12 13 13 15 14 16 15 15 15 15 13 10 8 6 6 8 8 11 5 2 2 3 3 3 2 3 4 5
6 7 8 7 7 7 7 7 6 8 8 8 8 11 12 12 11 13 14 13 15 14 14 12 14 9 11 9 7 10 10 10 9 13 3 2 1 1 3 3 3 3 3
5 6 8 8 7 7 6 6 6 6 6 6 6 6 8 9 11 11 11 12 12 12 11 11 11 9 10 8 9 9 8 7 7 8 3 2 2 2 2 1 1 1 2
6 6 7 8 7 6 6 6 6 5 5 5 5 5 6 7 8 9 9 9 10 10 10 10 10 11 12 11 10 10 7 7 4 2 2 2 2 2 2 2 1 1 1
18 7 7 7 7 6 6 5 4 5 4 5 5 4 5 5 5 7 8 9 10 10 8 9 8 5 5 5 6 6 5 3 2 3 2 2 3 2 3 3 2 2 1
19 15 7 6 6 6 5 3 4 4 4 4 4 4 5 2 5 3 3 5 6 6 6 4 5 5 8 8 7 6 7 6 5 4 3 4 4 3 4 4 3 3 3
18 17 8 7 6 6 4 4 5 3 2 2 3 3 1 2 5 4 2 3 3 4 5 5 4 3 6 6 8 11 8 7 5 5 4 4 4 6 6 4 3 2 2
19 17 10 7 7 6 5 5 5 3 3 2 1 1 1 1 3 4 3 4 4 4 3 4 5 5 3 6 5 7 5 5 5 3 4 4 2 6 5 4 5 4 3
17 16 15 9 8 9 6 6 4 2 1 1 0 1 2 1 2 2 4 5 5 5 5 5 4 5 4 7 5 8 6 5 7 10 9 10 9 11 8 7 5 5 2
18 20 18 16 14 11 7 5 2 2 2 2 2 1 2 2 3 3 5 4 5 4 4 4 6 6 7 7 5 7 8 4 6 6 5 8 7 8 7 2 5 5 3
18 18 18 13 11 9 5 2 2 3 4 3 4 1 2 1 3 4 7 3 5 5 4 3 2 10 9 9 8 4 4 7 10 7 6 5 5 5 4 4 4 2 2
17 17 18 14 9 6 5 2 2 4 5 5 5 3 1 2 4 6 8 8 8 6 5 3 5 12 13 13 8 14 14 8 5 5 5 4 4 4 4 3 3 3 3
17 17 17 14 8 5 4 4 2 4 4 5 4 4 2 2 2 9 10 10 10 5 4 8 14 14 16 13 14 13 7 4 4 4 5 3 2 3 4 3 3 4 3
16 15 15 11 8 4 2 2 3 3 3 4 4 4 3 3 3 2 3 4 10 7 9 7 9 11 11 10 7 6 3 3 3 4 4 3 2 2 2 2 2 2 1
15 14 13 8 5 2 1 1 1 0 3 3 2 4 5 4 3 6 5 4 4 8 7 5 5 4 5 5 5 4 3 2 3 2 3 3 2 2 2 1 1 1 1
14 11 9 6 3 1 1 4 10 9 11 11 8 5 2 9 11 10 11 13 13 10 3 4 4 5 4 4 4 4 3 4 3 2 2 2 2 2 2 1 1 2 1
13 11 8 6 3 0 1 2 7 11 19 18 18 16 9 12 14 14 14 12 11 8 5 4 4 4 4 4 3 3 3 3 3 3 2 2 2 2 2 1 1 1 1
12 13 7 6 6 4 4 4 3 4 5 6 17 17 20 21 14 14 14 12 7 8 6 5 4 4 3 3 2 2 1 2 2 3 2 2 2 1 1 1 1 2 1
10 8 7 7 7 8 7 7 7 7 8 7 7 11 13 19 23 24 21 8 8 7 7 7 6 5 5 5 5 4 4 3 3 2 3 2 1 1 1 0 1 2 2
11 16 11 8 8 8 8 8 8 8 7 7 8 7 6 6 10 9 9 8 8 6 5 5 5 4 4 4 4 4 3 3 3 3 2 2 2 1 1 1 2 3 3
9 10 14 9 10 9 8 8 7 7 7 7 7 10 19 9 7 8 7 7 6 5 4 4 4 4 3 3 3 3 3 2 2 2 1 1 1 1 1 2 3 2 3
9 9 9 9 8 9 8 8 8 8 7 7 6 8 16 7 7 6 6 5 5 4 3 3 3 3 3 3 3 3 2 2 2 1 1 1 2 2 2 2 2 2 2
9 10 9 8 8 9 8 8 7 7 7 7 7 6 6 6 5 5 4 4 4 4 3 3 3 3 3 3 3 3 3 3 2 1 2 2 2 2 2 2 3 3 3
9 9 9 8 8 7 7 7 6 8 7 6 6 6 6 5 5 5 4 4 4 4 4 4 4 5 4 4 3 4 4 3 3 3 4 3 3 3 2 2 3 3 3
8 8 8 8 8 8 8 8 7 7 7 7 6 6 6 5 5 5 5 5 4 4 5 5 4 5 6 7 6 7 7 8 6 6 3 4 5 5 4 3 3 2 3
8 8 7 7 7 7 7 7 7 7 7 6 6 6 6 6 5 5 5 5 5 5 5 4 6 7 8 8 8 9 10 10 8 9 5 4 5 6 4 6 6 5 6
Wind_Direction
297 291 284 275 261 240 229 233 232 233 225 216 207 200 205 209 213 215 220 225 225 224 225 225 225 225 224 220 212 214 222 225 250 247 187 148 175 169 148 184 161 187 214
291 300 288 287 276 260 252 252 240 235 236 232 216 212 211 207 212 216 222 224 232 230 231 229 232 229 224 219 214 225 228 229 238 257 161 174 176 144 140 157 190 198 214
302 305 298 289 281 271 261 252 256 255 246 247 233 214 216 215 215 220 228 237 230 233 231 229 229 218 226 224 221 226 226 226 228 242 208 105 101 99 105 111 186 180 231
286 292 296 294 298 303 295 270 257 272 270 264 239 226 215 214 220 217 219 225 228 228 223 219 218 216 221 220 219 220 216 213 181 158 87 118 137 144 127 147 154 115 172
320 288 280 289 294 307 316 343 6 8 352 344 321 280 245 223 222 221 220 214 218 217 208 216 217 219 221 208 202 207 190 167 156 143 127 139 141 155 185 158 134 143 162
321 304 288 296 302 296 299 344 344 330 339 343 333 332 316 10 6 6 244 226 214 209 206 131 116 109 92 102 103 125 168 164 156 162 156 171 175 151 154 153 135 146 224
318 312 286 278 282 285 302 325 307 301 342 303 311 322 314 24 357 353 312 231 208 192 167 153 144 140 141 121 102 98 82 104 142 148 160 169 161 170 139 147 136 146 175
319 319 313 293 285 286 278 269 281 281 276 280 297 342 136 43 2 357 33 93 82 81 99 153 148 151 135 146 135 102 92 72 73 82 109 129 121 143 140 147 138 109 77
322 334 330 323 302 288 269 272 239 229 234 230 167 93 142 140 83 71 103 102 96 74 67 63 115 124 144 128 125 114 92 63 80 97 105 117 122 133 131 120 134 146 116
324 323 316 313 301 286 269 248 201 160 146 115 78 41 100 99 77 112 125 124 107 105 75 77 102 123 124 132 127 134 123 126 111 89 67 76 93 115 118 93 148 153 110
321 313 309 299 291 277 266 218 195 157 138 135 123 79 82 86 90 112 136 135 139 131 122 107 91 117 115 117 117 116 128 132 120 107 101 98 91 92 76 61 63 98 149
314 309 303 295 286 275 238 225 187 162 152 148 135 106 40 53 92 92 112 128 139 130 134 136 125 124 122 113 100 120 126 110 112 117 118 114 109 100 98 100 88 86 74
311 306 301 294 282 272 239 197 187 179 171 161 157 151 136 97 65 89 98 108 115 101 122 130 125 125 111 99 106 111 105 113 129 124 116 102 94 120 121 108 88 82 64
305 305 301 294 285 281 263 203 182 182 172 166 161 150 142 119 114 85 72 89 104 101 100 99 106 105 105 101 89 80 73 80 115 123 117 116 134 96 88 82 119 133 126
303 300 296 289 277 291 341 352 120 121 180 167 159 153 156 154 164 148 131 106 102 111 106 101 105 103 99 94 93 94 82 82 98 90 108 112 111 111 95 103 128 147 138
302 302 297 289 269 268 122 94 74 91 102 102 116 124 101 131 133 129 129 124 118 110 65 98 96 96 100 104 110 104 84 81 59 73 108 116 122 120 112 99 92 101 78
312 317 313 298 298 196 63 81 98 58 69 71 75 73 112 121 120 113 112 108 105 97 96 89 86 86 83 75 68 63 73 66 53 33 24 71 87 93 127 158 200 179 181
333 334 339 346 354 21 52 52 29 43 48 45 50 47 66 76 101 104 107 93 73 64 66 64 72 81 91 104 101 93 78 96 78 74 58 58 67 83 161 194 195 191 190
351 353 353 4 19 27 35 45 51 52 51 25 17 28 28 63 65 61 60 59 65 50 41 49 42 33 38 39 40 40 40 44 50 38 31 34 33 42 289 288 184 188 157
357 4 15 17 24 32 36 46 51 48 44 50 27 20 5 43 52 52 52 55 57 52 36 39 36 32 29 33 25 28 29 30 38 45 37 33 14 3 241 229 219 192 196
355 5 14 21 26 26 27 34 38 48 49 41 25 30 44 47 44 50 49 52 51 45 33 23 17 17 22 17 15 19 21 20 25 28 25 325 343 260 253 253 218 212 196
360 5 13 18 17 29 29 29 30 33 32 37 29 23 39 36 38 43 41 40 36 33 24 10 359 359 359 359 357 342 333 330 333 332 307 279 247 243 248 241 241 238 225
1 8 11 16 17 14 27 28 25 28 26 19 20 22 22 27 29 30 25 25 22 9 1 356 345 332 336 336 338 323 301 294 301 318 284 270 262 261 238 234 232 228 214
2 4 7 10 14 14 18 17 17 20 19 17 14 16 17 8 10 16 17 10 13 6 351 346 339 329 328 324 313 306 302 296 270 265 256 249 254 263 251 236 232 227 227
3 4 8 6 5 6 5 7 10 8 12 9 2 6 5 359 2 4 3 359 360 1 350 335 329 329 324 319 310 304 293 294 279 263 241 240 242 241 242 238 232 235 227
360 2 3 1 3 3 0 358 358 357 1 357 353 353 353 352 348 346 341 337 346 336 329 333 330 329 325 319 314 310 310 304 281 251 221 218 233 244 229 237 240 233 241